Regional Weather Roundup
Issued by NWS Charleston, SC

Current Version | Previous Version | Graphics & Text | Print | Product List | Glossary On
Versions: 1 2 3 4 5 6 7 8 9 10 11 12 13 14 15 16 17 18 19 20 21 22 23 24 25 26 27 28 29 30 31 32 33 34 35 36 37 38 39 40 41 42 43 44 45 46 47 48 49 50
000
ASUS42 KCHS 282310
RWRCHS
REGIONAL WEATHER ROUNDUP
NATIONAL WEATHER SERVICE CHARLESTON SC
700 PM EDT MON JUL 28 2014

NOTE: "FAIR" INDICATES FEW OR NO CLOUDS BELOW 12,000 FEET WITH NO
SIGNIFICANT WEATHER AND/OR OBSTRUCTIONS TO VISIBILITY.

NOT ALL STATIONS ARE QUALITY CONTROLLED BY THE NATIONAL
WEATHER SERVICE. USE DATA WITH CAUTION...ESPECIALLY
DEWPOINT OBSERVATIONS.

SCZ027-030-031-034>040-042>050-290000-
...SOUTH CAROLINA...

CITY           SKY/WX    TMP DP  RH WIND       PRES   REMARKS
N CHARLESTON   MOSUNNY   90  75  61 W9        29.79S HX 100
WATERFRONT PRK   N/A     91 N/A N/A SW9         N/A
FORT JOHNSON   NOT AVBL
MOUNT PLEASANT FAIR      90  77  66 W9        29.80R HX 102
JOHNS ISLAND   CLEAR     90  72  55 CALM      29.81R HX  96
PINOPOLIS        N/A     93  75  55 W12       29.70S HX 104
MONCKS CORNER    N/A     91  77  62 SW8       29.79R HX 105
SUMMERVILLE    NOT AVBL
BEAUFORT MCAS  PTSUNNY   85  76  74 SW3       29.81F HX  94
BEAUFORT ARPT  FAIR      82  79  89 CALM      29.81F HX  93
HILTON HEAD IS PTSUNNY   93  75  55 SW6       29.82F HX 104
GEORGETOWN     NOT AVBL
WALTERBORO     NOT AVBL
ORANGEBURG     PTSUNNY   92  72  51 W7        29.79R HX  99
BARNWELL       FAIR      93  72  49 W13       29.80S HX 100
AIKEN          FAIR      91  63  38 W12G18    29.86R HX  92
MANNING        FAIR      86  68  54 CALM      29.78R
KINGSTREE      NOT AVBL
COLUMBIA       MOSUNNY   96  56  26 NW15G23   29.78R HX  94
SUMTER         SUNNY     93  64  38 W12       29.77R HX  94
FLORENCE       NOT AVBL
MYRTLE BEACH   MOSUNNY   81  66  61 N9        29.78F
N MYRTLE BEACH LGT RAIN  75  68  78 N6G17     29.77F

$$

GAZ063-065-086>088-099>101-113>116-118-119-134-136>141-150-290000-
...GEORGIA...

CITY           SKY/WX    TMP DP  RH WIND       PRES   REMARKS
SAVANNAH ARPT  PTSUNNY   89  73  59 W3        29.83R HX  97
HUNTER AAF     PTSUNNY   91  73  56 W6        29.81R HX 100
FORT STEWART   CLOUDY    92  72  50 W5        29.82F HX 100
STATESBORO     NOT AVBL
SYLVANIA       PTCLDY    90  77  65 W5        29.83S HX 103
CLAXTON        HAZE      81  72  74 SW13G18   29.86R THUNDER VSB 1
THOMSON        SUNNY     92  71  50 W9        29.88S HX  98
AUGUSTA-BUSH   SUNNY     93  65  39 NW12      29.80S HX  95
AUGUSTA-DANIEL SUNNY     94  62  34 W9G17     29.83S HX  94
SWAINSBORO     FAIR      93  77  59 W7G16     29.84F HX 107
VIDALIA          N/A     90  77  66 W7        29.85F HX 102
ALMA           NOT AVBL
WAYCROSS       PTSUNNY   96  73  46 W9        29.87R HX 105
JESUP          FAIR      93  73  52 W5        29.84F HX 102
BRUNSWICK      MOSUNNY   95  68  41 W9G16     29.85S HX  99
SAINT SIMONS   SUNNY     95  71  45 SW10      29.84F HX 102

$$

SCZ027-028-034-036>038-045-046-048>050-GAZ119-141-290000-
...LAKE AND SUPPLEMENTAL COASTAL OBSERVATIONS...

STATION/POSITION TIME  TEMP    WIND        PRES    WAVE   SWELL
                       AIR SEA DIR/SP/G            HT/PER HT/PER/DIR
                 (UTC) (F)     (DEG/KT/KT) (MB)    (FT/S) (FT/S/D)
UPR LAKE MARION  NOT AVBL
WINYAH BAY       2200   93     240/ 11     1008.0S
LAKE MURRAY      2200   92     280/ 10/ 16 1007.8S
ACE BASIN NERRS  2200   88     250/  1     1010.0S
FORT PULASKI     2300   93     240/  5/  8 1009.9F
SAPELO ISLAND    NOT AVBL

$$

ANZ835-935-AMZ111-154-330-350-352-354-374-450-454-472-290000-
...C-MAN AND BUOY OBSERVATIONS...

STATION/POSITION TIME  TEMP    WIND        PRES    WAVE   SWELL
                       AIR SEA DIR/SP/G            HT/PER HT/PER/DIR
                 (UTC) (F)     (DEG/KT/KT) (MB)    (FT/S) (FT/S/D)
FOLLY BEACH CMAN 2200   87     220/ 14/ 17 1009.5F
BUOY 41004       2300   84 84  210/ 19/ 23 1008.1F   5/ 6   2/ 9
BUOY 41008       2300   87 85  190/ 14/ 16 1010.1F   2/ 3   2/110/ 9
5E ST. MARYS GA  2300      86                N/A     2/ 9
FRYING PAN BUOY  NOT AVBL
BUOY 41025       2300          VRB 12/ 14  1008.3R   4/ 7   3/180/ 7
CAPE LOOKOUT NC  2200   83     230/ 10/ 13 1008.6R
BUOY 41002       2222   82 81  230/ 17/ 21 1013.2F   6/ 8   3/240/ 8
BUOY 41010       2300   85 84  220/ 14/ 16 1014.7F   4/ 6   2/130/ 8
BUOY 41012       NOT AVBL
ST AUGUSTINE FL  2300   87     230/  6/  9 1013.5F
CAPERS NEARSHORE 2200   85     220/ 19/ 23   N/A
FRIPP NEARSHORE  NOT AVBL


$$


USA.gov is the U.S. government's official web portal to all federal, state and local government web resources and services.